Погода Сосново-Озерское

Погода Сосново-Озерское : погода сейчас, прогноз погоды и архив. Всё, что Вы хотите узнать о погоде Сосново-Озерское!

Поиск расширенной информации на нашем сайте:

Другие новости

Новости СМИ2

Главная страница сайта

Новости сайта

03.07.2017

Напоминаем, что на нашем специализированном сайте Метеоцентр.Азия вы можете получить высокодетализированные автоматические прогнозы погоды по пунктам России, СНГ и мира в авиационном формате (включающие направление и скорость ветра, видимость, явления погоды, количество и форму облачности, нижнюю и верхнюю границу облачности).

Рекомендуем: Ремонт квартир Харьков

Погода Сосново-Озерское - сегодня

Время (UTC), дата Ветер
(°,м/с) 
Видим.   Явления Облачность Т
(°С)
Тd
(°С)
f(%) Тe
(°С)
Pmin
(гПа)
dP
(гПа)
Po
(мм)
O2
(г/м3)
Тmin Tmax R s Состояние
почвы
15 20.04.18 190 (Ю) н/о    3/0 верхняя 
[Ci fib]
-3.1 -10.7 56 -4  1025  1.2  683  279           
18 20.04.18 180 (Ю) н/о    ясно 
-5.4 -11.6 62 -5  1026.5  0.4  683  282           
21 20.04.18 050 (СВ) н/о    4/0 верхняя 
[Ci fib]
-7.7 -11.6 74 -7  1028  0.4  683  284           
00 21.04.18 330 (СЗ) 20000 м    10/0 верхняя 
[Ci sp]
-2.2 -8.1 64 -2  1026.9  1.3  684  279  -8.1         
03 21.04.18 340 (С) 20000 м    10/0 верхняя 
[Cs]
+5.2 -5.9 45 +5  1023.6  0.1  684  271           
06 21.04.18 010 (С) 20000 м    3/3 1000 м верхняя 
[Cu med, cong|Ci sp]
+12.2 -9.3 21 +13  1019.5  -1.2  683  264           
09 21.04.18 290 (З) 20000 м    8/8 1000 м 
[Cu med, cong]
+10.3 -5.5 32 +9  1019.5  -0.6  683  266           
15 21.04.18 190 (Ю) н/о    3/0 верхняя 
[Ci fib]
+2.9 -6.2 51 +4  1025.9  1.8  685  274           
18 21.04.18 190 (Ю) н/о    3/0 верхняя 
[Ci fib]
-3.1 -7.1 74 -4  1029.8  1.1  686  280           
21 21.04.18 150 (ЮВ) н/о    1/0 верхняя 
[Ci fib]
-4.7 -7.2 83 -6  1030.9  0.4  686  282           
03 22.04.18 010 (С) 20000 м    3/1 1000 м верхняя 
[Cu hum|Ci fib]
+11.7 -3.7 34 +12  1024.1  -1  686  265           
06 22.04.18 260 (З) 20000 м    6/4 1000 м верхняя 
[Cu hum|Ci sp]
+15.4 -5.5 23 +16  1020.9  -1.6  685  262           
09 22.04.18 260 (З) 20000 м    10/3 1000 м верхняя 
[Cu hum|Ci sp]
+15.8 -6.6 21 +17  1018.8  -1.8  684  261           
15 22.04.18 180 (Ю) н/о    10/0 верхняя 
[Ci sp]
+2.2 -6.6 52 +1  1024.6  0.5  684  274           
18 22.04.18 200 (Ю) н/о    4/0 верхняя 
[Ci fib]
+2.3 -6.9 51 +2  1024.4  0.1  684  274           
21 22.04.18 190 (Ю) н/о    3/0 средняя, верхняя 
[Ac lent|Ci fib]
+2.1 -6.8 52 1023.8  -0.6  683  274           
00 23.04.18 220 (ЮЗ) 20000 м    3/0 верхняя 
[Ci sp]
+9 -6.2 34 +8  1021.1  0.2  683  267  +0.9         
12 23.04.18 280 (З) 4{11}  20000 м    8/0 средняя, верхняя 
[Ac lent|Ci fib]
+9.3 -5.9 34 +8  1017.2  0.6  681  266    +17.3       
15 23.04.18 190 (Ю) н/о    4/0 верхняя 
[Ci sp]
+5.6 -9.7 32 +5  1019.4  0.5  681  270           
18 23.04.18 210 (ЮЗ) н/о    3/0 верхняя 
[Ci fib]
+2.3 -9.1 43 +3  1020.5  -0.3  681  273           
21 23.04.18 170 (Ю) н/о    4/0 верхняя 
[Ci sp]
+1.4 -8.8 47 1020.2  -0.6  681  274           
00 24.04.18 160 (Ю) 20000 м    3/0 верхняя 
[Ci fib]
+8.4 -7.3 32 +8  1016.9  -0.3  680  267  -0.4         
03 24.04.18 300 (СЗ) 20000 м    8/0 верхняя 
[Ci fib]
+17.5 -8.1 17 +18  1010.8  -2.2  679  258           
12 24.04.18 260 (З) 4{12}  20000 м    8/0 средняя, верхняя 
[Ac lent|Ci sp]
+14.8 -4.7 26 +15  1004.2  -0.8      +21.7       
15 24.04.18 120 (ЮВ) н/о    3/0 верхняя 
[Ci fib]
+5 -7.1 41 +5  1007.9  -0.2             
Время (UTC), дата Ветер
(°,м/с) 
Видим.   Явления Облачность Т
(°С)
Тd
(°С)
f(%) Тe
(°С)
Pmin
(гПа)
dP
(гПа)
Po
(мм)
O2
(г/м3)
Тmin Tmax R s Состояние
почвы

Для получения пояснительной информации подведите курсор к названию столбца.

ПОГОДА Сосново-Озерское - архив

Всё, что Вы хотите узнать о погоде Сосново-Озерское - удобно и подробно!

Выберите нужную дату (начиная с 1 января 2015* года) и нажмите кнопку "Найти".
Будут отображены архивные сводки погоды по пункту Сосново-Озерское, начиная с указанной даты.


Отображать данные в формате CSV (для использования в таблицах Excel)


Внимание! Наш архив погоды предназначен исключительно для личного некоммерческого использования в познавательных целях. Если Вам необходимы официальные справки о состоянии погоды (для производственных, юридических, коммерческих и т.п. целей), обращайтесь в органы Росгидромета.

*Примечание: данная дата относится к архиву по метеостанциям СССР (Россия, СНГ, Балтия).
Архив по метеостанциям Зарубежной Европы и Азии (кроме Китая) хранится 10 дней, по другим регионам земного шара (Китай, Африка, Америка, Австралия, Океания) - 1 день.

Сосново-Озерское - район местоположения метеостанции


Название, широта, долгота, высота метеостанции:
Сосново-Озерское 52.5°ш. 111.6°д. 952 м над ур. моря [Российская Федерация]

Дополнительная информация

В oтличие oт бoльшинства пoгoдных сайтoв мы публикуем пoдрoбную метеoинфoрмацию в детальнoм прoфессиoнальнoм фoрмате.

Характеристики температуры и влажнoсти вoздуха измеряются на высoте 2 м в тени вдали oт зданий и деревьев.
Скoрoсть ветра измеряется на высoте 10 м (на урoвне рoста челoвека скoрoсть ветра ниже в 1.5-2 раза). Если метеoстанция нахoдится в гoрoде или в лесу, тo скoрoсть ветра занижена на 2-4 м/с пo сравнению с oткрытым местoм. Скoрoсть ветра над акватoриями крупных рек и oзёр, а также на вершинах хoлмoв на 2-5 м/с выше, чем в oбычных услoвиях.
Атмoсфернoе давление в разных тoчках местнoсти мoжет значительнo oтличаться oт давления на метеoстанции, в зависимoсти oт услoвий рельефа (при пoдъёме на 10 м давление пoнижается примернo на 1 мм рт.ст.).